Airfield :
LOGIN :

Register | Disclaimer

   EN    FR    IT 

 










Legend :    VFR   Marginal VFR   IFR   Intensive IFR   Very Intensive IFR
Visi :
Ceiling :
>= 8 km
>= 3000ft
5 to 8 km
1000 to 3000 ft
1500m to 5 km
500 to 1000 ft
800 to 1500m
200 to 500 ft
< 800m
< 200 ft
Symbols :   Thunderstorms  Fog  Heavy snow  Heavy precipitations  Wind > 20 kt
SIGMETs :     Misc.  Thunderstorms  Icing  Turbulence  Mountain Waves  Volcanic Ashes






- Airport Elevation : 86 ft


LERT - Rota Navy

CURRENT METAR :
  • 011500Z 21012KT 9999 SCT025 SCT035 BKN045 16/10 Q1012 NOSIG

EXPIRED METARs :
  • 011400Z 20010KT 170V240 9999 FEW020 SCT040 16/10 Q1013 NOSIG
  • 011300Z 18008KT 160V220 9999 FEW010 SCT030 BKN059 15/10 Q1013 NOSIG

TAF TAF LERT
Valid from the 01 at 15:00 until the 02 at 00:00 UTC


011400Z 0115/0124 22012KT 9999 SCT040
PROB30
TEMPO 0115/0121 SHRA SCT020TCU
TEMPO 0121/0124 24015G25KT 4000 RA BKN020 FEW030TCU



MET'MAP, your aeronautical weather chart ! - Copyright ORBIFLY December 2007 - Disclaimer

ORBIFLY MET'MAP TEAM :

Programming & Development : Alexandra Zaïnal
Concept & original design : Baudouin d'Aumeries
Assistance for programming : Marc-Olivier Méhu
Technical & hardware support : Manuel Goepfert

Contact : metmap@orbifly.com




SOURCES & CREDITS :

   NOAA